Location: Sabalos
(43.2860°N, 0.1414°E)
Time: 10:37:42
(UTC+00:00)

NOSS 3-4 (C) - Pass Details

Date: 05 July 2020
Orbit: 891 x 1321 km, 63.4° (Epoch: 12 July)

Event Time Altitude Azimuth Distance (km) Brightness Sun altitude
Rises 22:05:19 0° 325° (NW) 3,797 8.3 -18.6°
Reaches altitude 10° 22:07:58 10° 331° (NNW) 2,902 7.2 -18.8°
Maximum altitude 22:14:39 48° 45° (NE) 1,467 4.5 -19.4°
Enters shadow 22:19:54 19° 112° (ESE) 2,518 5.2 -19.8°
